Le nostre stazioni meteo in Italia

Pubblicità
Il mio iltempo24.it
S. Valentino Alla Muta, Italia (16008): Temperatura & dewpoint: 24.03.2020 11:00:00 - 30.03.2020 11:00:00 (CEST)S. Valentino Alla Muta, Italia (16008): velocità del vento: 24.03.2020 11:00:00 - 30.03.2020 11:00:00 (CEST)S. Valentino Alla Muta, Italia (16008): direzione del vento: 24.03.2020 11:00:00 - 30.03.2020 11:00:00 (CEST)S. Valentino Alla Muta, Italia (16008): visibility: 24.03.2020 11:00:00 - 30.03.2020 11:00:00 (CEST)
Data & Tempo tt [°C] td [°C] ff [km/h] ff [kn] dd vv [km]
30.03.2020 11:00:00 -1,0 -2,1 13 7 NNE 10
30.03.2020 10:00:00 -2,4 -2,7 16 9 NNE 10
30.03.2020 09:00:00 -2,6 -2,6 13 7 ENE 10
30.03.2020 08:00:00 -2,2 -2,9 11 6 ENE 10
30.03.2020 07:00:00 -1,8 -2,9 16 9 ENE 10
30.03.2020 06:00:00 -1,6 -2,9 15 8 ENE 10
30.03.2020 05:00:00 -1,2 -2,3 16 9 ENE 10
30.03.2020 04:00:00 -0,6 -2,0 15 8 ENE 10
30.03.2020 03:00:00 -0,4 -2,1 15 8 NE 10
30.03.2020 02:00:00 0,2 -1,4 13 7 ENE 10
30.03.2020 01:00:00 0,6 -0,4 11 6 N 10
30.03.2020 00:00:00 1,4 -0,1 13 7 N 10
29.03.2020 23:00:00 2,4 0,8 9 5 N 10
29.03.2020 22:00:00 2,8 0,2 9 5 N 10
29.03.2020 21:00:00 4,4 0,2 5 3 N 10
29.03.2020 20:00:00 6,0 -1,2 11 6 O 10
29.03.2020 19:00:00 7,0 -2,2 5 3 N 10
29.03.2020 18:00:00 7,6 -3,0 0 0 N 10
29.03.2020 17:00:00 8,2 -3,3 8 4 N 12
29.03.2020 16:00:00 8,4 -3,1 9 5 N 14
29.03.2020 15:00:00 8,8 -3,4 9 5 N 14
29.03.2020 14:00:00 9,0 -2,9 11 6 N 10
29.03.2020 13:00:00 7,0 -3,3 9 5 N 20
29.03.2020 12:00:00 7,0 -2,4 9 5 N 20
29.03.2020 11:00:00 4,8 -0,8 11 6 N 20
29.03.2020 10:00:00 3,0 -0,3 9 5 NNE 20
29.03.2020 09:00:00 0,2 -1,2 9 5 N 10
29.03.2020 08:00:00 0,0 -1,4 9 5 N 10
29.03.2020 07:00:00 0,0 -2,1 9 5 N 10
29.03.2020 06:00:00 - - - - - -
29.03.2020 05:00:00 1,0 -1,2 8 4 N 10
29.03.2020 04:00:00 - - - - - -
29.03.2020 03:00:00 4,8 -0,2 8 4 N 10
29.03.2020 02:00:00 4,4 0,0 8 4 NNE 10
29.03.2020 01:00:00 4,0 -0,4 5 3 NNE 10
29.03.2020 00:00:00 4,8 -0,2 8 4 N 10
28.03.2020 23:00:00 4,8 -0,2 8 4 N 10
28.03.2020 22:00:00 5,0 -0,8 5 3 NNE 10
28.03.2020 21:00:00 6,8 -1,1 5 3 NNE 10
28.03.2020 20:00:00 7,2 -2,8 5 3 NNE 20
28.03.2020 19:00:00 8,4 -3,8 8 4 N 20
28.03.2020 18:00:00 10,4 -3,6 13 7 N 20
28.03.2020 17:00:00 12,2 -2,8 9 5 N 20
28.03.2020 16:00:00 12,2 -2,8 9 5 N 20
28.03.2020 15:00:00 12,2 -2,8 9 5 N 20
28.03.2020 14:00:00 12,0 -2,2 13 7 N 20
28.03.2020 13:00:00 11,0 -2,1 13 7 N 20
28.03.2020 12:00:00 9,0 -1,4 13 7 NNE 10
28.03.2020 11:00:00 6,0 -1,2 11 6 NNE 10
28.03.2020 10:00:00 1,8 -0,8 5 3 ESE 20
28.03.2020 09:00:00 -0,8 -0,8 5 3 NE 20
28.03.2020 08:00:00 -1,8 -1,8 9 5 NNE 20
28.03.2020 07:00:00 -1,8 -1,8 9 5 NNE 12
28.03.2020 06:00:00 -1,8 -1,8 8 4 NNE 12
28.03.2020 05:00:00 -1,4 -1,8 0 0 N 12
28.03.2020 04:00:00 -1,2 -1,6 0 0 N 12
28.03.2020 03:00:00 -1,0 -1,8 0 0 N 12
28.03.2020 02:00:00 -0,2 -1,6 0 0 N 12
28.03.2020 01:00:00 0,4 -1,2 0 0 N 12
28.03.2020 00:00:00 1,0 -0,9 0 0 N 12
27.03.2020 23:00:00 2,0 -0,1 8 4 SSO 12
27.03.2020 22:00:00 2,4 -0,3 8 4 SO 10
27.03.2020 21:00:00 2,8 -0,1 8 4 SO 10
27.03.2020 20:00:00 3,4 -0,4 0 0 N 10
27.03.2020 19:00:00 4,0 -0,4 11 6 S 14
27.03.2020 18:00:00 5,0 -0,6 9 5 SSO 14
27.03.2020 17:00:00 6,4 -0,6 13 7 SSE 14
27.03.2020 16:00:00 7,2 0,0 13 7 S 14
27.03.2020 15:00:00 6,4 -0,6 15 8 S 14
27.03.2020 14:00:00 5,4 -1,1 13 7 S 16
27.03.2020 13:00:00 7,0 -0,9 15 8 S 14
27.03.2020 12:00:00 6,0 -1,0 15 8 S 16
27.03.2020 11:00:00 2,6 -0,8 13 7 OSO 20
27.03.2020 10:00:00 0,8 -1,6 5 3 O 10
27.03.2020 09:00:00 -2,6 -4,0 8 4 N 10
27.03.2020 08:00:00 -2,6 -4,0 8 4 NNE 10
27.03.2020 07:00:00 -2,2 -3,6 5 3 NNE 10
27.03.2020 06:00:00 -2,2 -3,6 5 3 NE 10
27.03.2020 05:00:00 -2,2 -4,5 5 3 SE 10
27.03.2020 04:00:00 -2,2 -4,5 5 3 S 10
27.03.2020 03:00:00 2,2 -0,5 11 6 SO 10
27.03.2020 02:00:00 -1,0 -4,3 5 3 SSE 10
27.03.2020 01:00:00 -1,0 -4,0 13 7 OSO 10
27.03.2020 00:00:00 0,0 -4,1 16 9 S 10
26.03.2020 23:00:00 0,2 -3,0 11 6 S 10
26.03.2020 22:00:00 0,4 -3,0 0 0 N 10
26.03.2020 21:00:00 0,8 -2,6 0 0 N 10
26.03.2020 20:00:00 1,8 -2,5 5 3 NNE 10
26.03.2020 19:00:00 2,0 -2,7 5 3 ENE 10
26.03.2020 18:00:00 2,6 -5,8 5 3 S 10
26.03.2020 17:00:00 2,8 -5,6 8 4 ONO 10
26.03.2020 16:00:00 2,2 -4,3 8 4 NNO 10
26.03.2020 15:00:00 2,0 -5,0 8 4 SO 10
26.03.2020 14:00:00 1,8 -4,9 5 3 O 10
26.03.2020 13:00:00 0,2 -5,4 5 3 OSO 12
26.03.2020 12:00:00 -2,8 -6,3 0 0 N 12
26.03.2020 11:00:00 -4,8 -8,4 0 0 N 10
26.03.2020 10:00:00 -5,4 -8,8 5 3 N 10
26.03.2020 09:00:00 -6,2 -8,6 0 0 N 12
26.03.2020 08:00:00 -7,0 -9,2 0 0 N 16
26.03.2020 07:00:00 -6,6 -9,2 0 0 N 12
26.03.2020 06:00:00 -6,6 -9,2 0 0 N 12
26.03.2020 05:00:00 -6,6 -9,0 5 3 SSO 12
26.03.2020 04:00:00 -6,6 -8,7 0 0 N 12
26.03.2020 03:00:00 -6,4 -9,0 11 6 SSE 12
26.03.2020 02:00:00 -5,6 -8,8 13 7 SE 12
26.03.2020 01:00:00 -5,2 -8,9 13 7 SE 12
26.03.2020 00:00:00 -4,2 -8,8 9 5 SSE 12
25.03.2020 23:00:00 -3,8 -8,3 9 5 SE 12
25.03.2020 22:00:00 -3,0 -8,3 11 6 SE 12
25.03.2020 21:00:00 -2,4 -8,3 11 6 S 12
25.03.2020 20:00:00 -1,4 -9,0 15 8 SSO 12
25.03.2020 19:00:00 -0,6 -8,8 16 9 OSO 14
25.03.2020 18:00:00 0,0 -8,4 18 10 OSO 14
25.03.2020 17:00:00 0,8 -7,9 24 13 SO 16
25.03.2020 16:00:00 0,6 -8,9 16 9 SSO 14
25.03.2020 15:00:00 1,4 -8,4 15 8 SSO 14
25.03.2020 14:00:00 1,8 -7,0 9 5 S 16
25.03.2020 13:00:00 1,4 -7,6 15 8 S 20
25.03.2020 12:00:00 0,2 -4,8 5 3 O 20
25.03.2020 11:00:00 -3,4 -6,8 8 4 N 20
25.03.2020 10:00:00 -4,8 -7,1 5 3 NNE 20
25.03.2020 09:00:00 -6,8 -8,6 8 4 N 20
25.03.2020 08:00:00 -6,6 -8,5 9 5 NNE 18
25.03.2020 07:00:00 -6,6 -8,8 9 5 NNE 15
25.03.2020 06:00:00 -6,2 -8,6 11 6 N 15
25.03.2020 05:00:00 -5,8 -8,5 15 8 N 12
25.03.2020 04:00:00 -5,6 -9,2 15 8 NNE 12
25.03.2020 03:00:00 - - - - - -
25.03.2020 02:00:00 -5,0 -11,0 11 6 NE 15
25.03.2020 01:00:00 -4,2 -9,4 13 7 NNE 15
25.03.2020 00:00:00 -3,6 -9,8 9 5 NE 15
24.03.2020 23:00:00 -2,8 -10,8 8 4 NNE 20
24.03.2020 22:00:00 -2,2 -11,5 5 3 N 20
24.03.2020 21:00:00 -1,6 -12,0 5 3 ENE 20
24.03.2020 20:00:00 -0,8 -13,0 9 5 NNE 20
24.03.2020 19:00:00 0,4 -13,3 16 9 NNO 30
24.03.2020 18:00:00 2,4 -12,2 16 9 NNO 30
24.03.2020 17:00:00 3,6 -12,0 15 8 NNO 30
24.03.2020 16:00:00 4,4 -10,5 13 7 N 30
24.03.2020 15:00:00 4,2 -10,6 15 8 N 30
24.03.2020 14:00:00 2,4 -10,1 18 10 N 30
24.03.2020 13:00:00 0,6 -9,1 21 11 NNE 20
24.03.2020 12:00:00 -2,2 -9,1 16 9 NNE 20
24.03.2020 11:00:00 - - - - - -

tt = Temperatura
td = dewpoint
ff = velocità del vento
dd = direzione del vento
vv = visibility

Stazioni seguenti

WeatherPro
AMSI
MeteoEarth